Racecast

Boyd Yellowjacket 8th Annual Invitational

Boyd High School · 3218m · Girls · Varsity · 2021-08-28 · TX

Course difficulty: -0.071

Race-day weather: 84°F · wind 10 mph · humidity 67%

View full meet →

Team scores

Place Team Points 12345 67
1 Holliday (TX) 33 1 2 3 12 14 15 28
2 Springtown (TX) 106 11 21 23 24 27 30 34
3 Paradise (TX) 112 10 19 25 26 32 33 40
4 Whitesboro (TX) 147 5 13 37 44 49 54
5 Pilot Point (TX) 163 8 20 31 47 58 60
6 Muenster (TX) 175 7 16 39 52 61
7 Callisburg (TX) 179 4 6 41 55 73
8 Ponder (TX) 191 17 35 42 43 53 57 63
9 Kennedale (TX) 203 9 29 38 59 69 74 75
10 Liberty Christian (Argyle) (TX) 219 18 36 45 56 65 68
11 Slidell (TX) 231 22 46 50 51 62 67 72
12 Henrietta (TX) 319 48 64 66 70 71

As scored by the meet.

Results

Place Athlete Grade School Time Rating Points
1 Hannah Spears 12 Holliday (TX) 1 11:56 SR 126.7 1
2 Jaycee Lyons 11 Holliday (TX) 2 12:06 SR 124.9 2
3 Simone Mouras 10 Holliday (TX) 3 12:18 SR 122.9 3
4 Tehya Lang 10 Callisburg (TX) 1 12:26 SR 121.6 4
5 Tania Ramirez 12 Boyd (TX) 1 12:39 PR 119.5
6 Rory Hake 10 Whitesboro (NY) 1 12:40 PR 119.3 5
7 Emily Smith 10 Covenant Christian (Colleyville) (TX) 1 12:41 SR 119.2
8 Julia Melo Torres 11 Callisburg (TX) 2 12:49 PR 117.9 6
9 Emma Walterscheid 9 Muenster (TX) 1 13:02 PR 116.0 7
10 Addison Hite 10 Pilot Point (TX) 1 13:06 115.4 8
11 Savanna Danner 12 Kennedale (TX) 1 13:07 SR 115.2 9
12 Aubree Godwin 11 Paradise (TX) 1 13:07 115.2 10
13 Alayna Vasquez 11 Springtown (TX) 1 13:16 PR 113.9 11
14 Briar Griffin 9 Holliday (TX) 4 13:19 PR 113.5 12
15 Zalenka Brannan 11 Whitesboro (NY) 2 13:19 SR 113.5 13
16 Jaci Shepherd 9 Holliday (TX) 5 13:20 PR 113.3 14
17 Kyla Coheley 11 Holliday (TX) 6 13:20 SR 113.3 15
18 Macy Bayer 10 Muenster (TX) 2 13:36 PR 111.1 16
19 Lillian Stamatis 9 Millsap (TX) 1 13:38 PR 110.9
20 Tate Wells 12 Ponder (TX) 1 13:40 110.6 17
21 Mackenzie O'Rourke 11 Liberty Christian (Argyle) (TX) 1 13:41 SR 110.5 18
22 Madison (Madi) Gentry 9 Paradise (TX) 2 13:51 109.1 19
23 Lindsey True 12 Pilot Point (TX) 2 13:52 109.0 20
24 Lonnie Naal 11 Springtown (TX) 2 13:57 SR 108.3 21
25 Avery Weathers 10 Slidell (TX) 1 13:58 SR 108.2 22
26 Avery Robinson 10 Bethesda Christian (TX) 1 14:06 PR 107.2
27 Aubrey Mueller 11 Springtown (TX) 3 14:07 PR 107.1 23
28 Aereonna Cardenas 11 Chico (CA) 1 14:07 SR 107.1
29 Emerson Self 10 Christian Life Prep (TX) 1 14:16 PR 105.9
30 Peyton Reynolds 11 Springtown (TX) 4 14:17 PR 105.8 24
31 Shaylynne Nelson 10 Paradise (TX) 3 14:17 SR 105.8 25
32 Jennifer Chavez-Romo 11 Paradise (TX) 4 14:19 105.6 26
33 Reagan Kelley 10 Springtown (TX) 5 14:19 PR 105.6 27
34 Sarah Southard 12 Holliday (TX) 7 14:21 SR 105.3 28
35 Delilah Martinez 12 Kennedale (TX) 2 14:21 PR 105.3 29
36 Kimberly Ramirez 12 Springtown (TX) 6 14:23 PR 105.1 30
37 Ava Dennis 11 Pilot Point (TX) 3 14:23 SR 105.1 31
38 Marenda (Charlotte) Pollard 11 Paradise (TX) 5 14:25 104.8 32
39 Zadie Holland 11 Paradise (TX) 6 14:26 PR 104.7 33
40 Ashlynn Dickey 11 Springtown (TX) 7 14:28 PR 104.5 34
41 Karly Ivy 12 Ponder (TX) 2 14:29 104.3 35
42 Ellie Meredith 11 Liberty Christian (Argyle) (TX) 2 14:29 PR 104.3 36
43 Karley Randall 11 Whitesboro (NY) 3 14:30 SR 104.2 37
44 Brailyn Tullous 9 Jacksboro (TX) 1 14:34 PR 103.8
45 Claudia Louro 12 Kennedale (TX) 3 14:38 SR 103.3 38
46 Anna Johnson 10 Coram Deo (Plano) (TX) 1 14:38 PR 103.3
47 Ali Fleitman 10 Muenster (TX) 3 14:40 SR 103.0 39
48 Kynzee Jackson 10 Holliday (TX) 8 14:41 SR 102.9
49 Fernanda Sosa 9 Paradise (TX) 7 14:44 102.6 40
50 Haily Bass 12 Callisburg (TX) 3 14:53 SR 101.5 41
51 Jillian Roberts 12 Ponder (TX) 3 14:54 101.4 42
52 Emily Rodgers 9 Jacksboro (TX) 2 14:54 PR 101.4
53 Isabella Aranda 9 FW Benbrook (TX) 1 14:55 PR 101.3
54 Presley Calhoun 9 Ponder (TX) 4 14:55 PR 101.3 43
55 Autumn Hedrick 10 Lindsay (CA) 1 14:57 101.1
56 Ciara Waterman 10 Whitesboro (NY) 4 15:00 PR 100.8 44
57 Samantha Ahlfs 11 Liberty Christian (Argyle) (TX) 3 15:02 SR 100.5 45
58 Peyton Johnson 9 Millsap (TX) 2 15:03 PR 100.4
59 Kristal Gladden 12 Slidell (TX) 2 15:03 SR 100.4 46
60 Chelsea Hernandez 10 Pilot Point (TX) 4 15:07 100.0 47
61 Berkley Roberts 9 Henrietta (TX) 1 15:08 PR 99.9 48
62 Ansley Cheng 11 Coram Deo (Plano) (TX) 2 15:12 SR 99.4
63 Skylar Brannan 12 Whitesboro (NY) 5 15:14 SR 99.2 49
64 Judit Herrera 10 Jacksboro (TX) 3 15:15 PR 99.1
65 Jasmine Gonzalez 11 Slidell (TX) 3 15:17 98.9 50
66 Kaydee West 10 Slidell (TX) 4 15:19 PR 98.7 51
67 Kassie Munguia 11 Holliday (TX) 9 15:19 SR 98.7
68 Addison Aldriedge 9 Muenster (TX) 4 15:20 SR 98.6 52
69 Kjersta Lybbert 10 Valley View (WA) 1 15:22 SR 98.3
70 Xaviera Smith 9 Ponder (TX) 5 15:30 97.5 53
71 Maddie (Madison) Luton 11 Whitesboro (NY) 6 15:32 SR 97.3 54
72 Jenevieve Barrera 10 Callisburg (TX) 4 15:33 SR 97.2 55
73 Avery Jackson 9 Liberty Christian (Argyle) (TX) 4 15:33 PR 97.2 56
74 Addison Gunther 10 FW Benbrook (TX) 2 15:34 PR 97.1
75 Ava Larson 10 Ponder (TX) 6 15:35 97.0 57
76 Estrella Figueroa 10 Pilot Point (TX) 5 15:38 96.7 58
77 Aubrey Haub 9 Kennedale (TX) 4 15:39 PR 96.6 59
78 Sarah Clingman 10 FW Benbrook (TX) 3 15:40 SR 96.5
79 Lizette Sosa 12 Pilot Point (TX) 6 15:43 PR 96.2 60
80 Gabby (Gabriella) Fleitman 10 Muenster (TX) 5 15:44 PR 96.1 61
81 Olivia Dunkelberger 9 Boyd (TX) 2 15:47 95.8
82 Kenlea Hardin 10 Slidell (TX) 5 15:51 SR 95.4 62
83 Maya Dulock 10 Lindsay (CA) 2 15:52 95.2
84 Emma McClure 11 Ponder (TX) 7 15:58 94.7 63
85 Libby Kindrick 9 Covenant Christian (Colleyville) (TX) 2 16:00 94.5
86 Addison Abbott 9 Millsap (TX) 3 16:05 PR 93.7
87 Natalie Romines 9 Henrietta (TX) 2 16:09 PR 93.6 64
88 Molly Moss 10 Valley View (WA) 2 16:11 SR 93.4
89 Daniela Martinez 10 Wolfe City (TX) 1 16:15 PR 93.0
90 Peyton Chaney 10 Coram Deo (Plano) (TX) 3 16:16 SR 92.9
91 Madeleine Holland 9 Liberty Christian (Argyle) (TX) 5 16:18 PR 92.7 65
92 Serenity Brown 12 Henrietta (TX) 3 16:23 SR 92.2 66
93 Riley Alexander 9 Slidell (TX) 6 16:24 PR 92.2 67
94 Kacee Greenwood 10 Springtown (TX) 8 16:24 SR
95 Kate Ridder 10 Liberty Christian (Argyle) (TX) 6 16:25 SR 92.1 68
96 Ami Hoffman 11 Valley View (WA) 3 16:27 SR 91.9
97 Sydney McFarlin 9 Lindsay (CA) 3 16:32 91.4
98 Kara Williams 10 Kennedale (TX) 5 16:38 SR 90.9 69
99 Haley Isaac 11 Boyd (TX) 3 16:38 90.9
100 Jenny Oliva 11 Boyd (TX) 4 16:58 89.1
101 Bri Dicarlio 9 Henrietta (TX) 4 16:59 PR 89.0 70
102 Celeste Buenos-Aires 10 Gainesville (GA) 1 17:14 87.7
103 Jana Warnock 11 Chico (CA) 2 17:15 SR 87.6
104 Brie Fewell 10 Covenant Christian (Colleyville) (TX) 3 17:17 PR 87.5
105 Isabella Dunlap 10 Gainesville (GA) 2 17:26 PR 86.7
106 Taryn King 11 FW Benbrook (TX) 4 17:28 SR 86.5
107 Samantha Garcia 12 Henrietta (TX) 5 17:32 PR 86.2 71
108 Kelsey Romig 9 Coram Deo (Plano) (TX) 4 17:39 PR 85.6
109 Jordan Brown 11 Slidell (TX) 7 17:51 SR 84.7 72
110 Payton Smith 11 Callisburg (TX) 5 18:36 SR 81.3 73
111 Ashley Cuevas 10 Chico (CA) 3 18:51 PR 80.2
112 Tinley Wease 9 Kennedale (TX) 6 19:13 PR 78.7 74
113 Sarah Uzailko 9 Wolfe City (TX) 2 19:58 PR 75.7
114 Cadence Nelson 10 Kennedale (TX) 7 22:11 PR 68.1 75
Something wrong on this page? Report it →